Regional Weather Roundup
Issued by NWS

Home | Current Version | Previous Version | Graphics & Text | Print | Product List | Glossary On
Versions: 1 2 3 4 5 6 7 8 9 10 11 12 13 14 15 16 17 18 19 20 21 22 23 24 25 26 27 28 29 30 31 32 33 34 35 36 37 38 39 40 41 42 43 44 45 46 47 48 49 50
803
ASUS43 KBIS 282110
RWRND

NORTH DAKOTA REGIONAL WEATHER ROUNDUP
NATIONAL WEATHER SERVICE BISMARCK ND
400 PM CDT TUE MAR 28 2017

NOTE: "FAIR" INDICATES FEW OR NO CLOUDS BELOW 12,000 FEET WITH NO
SIGNIFICANT WEATHER AND/OR OBSTRUCTIONS TO VISIBILITY.


NDZ001>003-009>011-017-282200-
NORTHWEST NORTH DAKOTA

CITY           SKY/WX    TMP DP  RH WIND       PRES   REMARKS
WILLISTON      FAIR      57  40  52 SW9       30.05F
MINOT          FAIR      51  42  71 E9        30.10S
MINOT AFB      CLOUDY    46  41  82 E10       30.09F
$$

NDZ018>021-031>035-040>046-282200-
SOUTHWEST NORTH DAKOTA

CITY           SKY/WX    TMP DP  RH WIND       PRES   REMARKS
BISMARCK       FAIR      62  35  36 SE10G20   30.08F
DICKINSON      PTSUNNY   59  29  31 SE9G18    30.02F
GARRISON         N/A     56  37  49 S8        30.07F
HETTINGER ARPT PTSUNNY   58  41  53 SE15      30.04F
$$

NDZ004>008-012>016-024-026-027-054-282200-
NORTHEAST NORTH DAKOTA

CITY           SKY/WX    TMP DP  RH WIND       PRES   REMARKS
GRAND FORKS    CLOUDY    54  42  64 NE6       30.19F
GRND FRKS AFB  CLOUDY    52  41  66 VRB7      30.19F
DEVILS LAKE    FAIR      51  38  60 SE12      30.16F
$$

NDZ022-023-025-028>030-036>039-047>053-282200-
SOUTHEAST NORTH DAKOTA

CITY           SKY/WX    TMP DP  RH WIND       PRES   REMARKS
FARGO          MOSUNNY   58  41  53 N6        30.16F
JAMESTOWN      FAIR      55  42  61 E8        30.13F
$$





USA.gov is the U.S. government's official web portal to all federal, state and local government web resources and services.